Weather History for Dublin, Ireland

Change the Weather History Date:

Saturday, February 9, 2013

  Actual Average Record
Temperature  
Mean Temperature 44 °F -  
Max Temperature 48 °F 47 °F 53 °F (1998)
Min Temperature 39 °F 37 °F 26 °F (1999)
Degree Days  
Heating Degree Days 22    
Moisture  
Dew Point 42 °F    
Average Humidity 92    
Maximum Humidity 100    
Minimum Humidity 82    
Precipitation  
Precipitation 0.04 in 0.07 in - ()
Sea Level Pressure  
Sea Level Pressure 30.02 in    
Wind  
Wind Speed 11 mph ()    
Max Wind Speed 16 mph    
Max Gust Speed -    
Visibility 6.5 miles    
Events Rain    
Averages and records for this station are not official NWS values.
T = Trace of Precipitation, MM = Missing Value Source: Averaged Metar Reports

Daily Weather History Graph

Daily Weather History Graph

Search for Another Location

Airport:

Trip Planner

Search our weather history database for the weather conditions in past years. The results will help you decide how hot, cold, wet, or windy it might be!

Date:

Astronomy

Feb. 09, 2013 Rise Set
Actual Time 7:55 AM GMT 5:24 PM GMT
Civil Twilight 7:18 AM GMT 6:01 PM GMT
Nautical Twilight 6:37 AM GMT 6:42 PM GMT
Astronomical Twilight 5:56 AM GMT 7:22 PM GMT
Moon 6:58 AM GMT (2/9) 4:53 PM GMT (2/9)
Length of Visible Light 10h 42m
Length of Day
9h 28m
Waning Crescent, 1% of the Moon is Illuminated
Feb 9
Waning Crescent
Feb 10
New
Feb 17
First Quarter
Feb 25
Full
Mar 4
Last Quarter

Hourly Weather History & Observations

Time (GMT) Temp. Windchill Dew Point Humidity Pressure Visibility Wind Dir Wind Speed Gust Speed Precip Events Conditions
12:00 AM 40 °F - 39 °F 95% 30.22 in 7 mi WSW 13.4 mph - -   Mist
12:00 AM 41.0 °F 33.1 °F 39.2 °F 93% 30.18 in 6.2 mi WSW 15.0 mph - N/A   Mostly Cloudy
12:30 AM 41.0 °F 32.8 °F 39.2 °F 93% 30.18 in 6.2 mi West 16.1 mph - N/A   Mostly Cloudy
1:00 AM 41.0 °F 33.1 °F 39.2 °F 93% 30.18 in 6.2 mi West 15.0 mph - N/A   Mostly Cloudy
1:30 AM 41.0 °F 33.9 °F 39.2 °F 93% 30.18 in 6.2 mi West 12.7 mph - N/A   Mostly Cloudy
2:00 AM 41.0 °F 33.5 °F 39.2 °F 93% 30.18 in 5.0 mi West 13.8 mph - N/A Rain Light Rain
2:30 AM 41.0 °F 33.5 °F 39.2 °F 93% 30.15 in 4.3 mi WSW 13.8 mph - N/A Rain Light Rain
3:00 AM 41.0 °F 33.5 °F 41.0 °F 100% 30.15 in 5.0 mi WSW 13.8 mph - N/A Rain Light Rain
3:30 AM 41.0 °F 34.3 °F 41.0 °F 100% 30.12 in 5.0 mi WSW 11.5 mph - N/A Rain Light Rain
4:00 AM 41.0 °F 33.5 °F 41.0 °F 100% 30.12 in 6.2 mi WSW 13.8 mph - N/A Rain Light Rain
4:30 AM 41.0 °F 32.8 °F 41.0 °F 100% 30.12 in 5.6 mi West 16.1 mph - N/A Rain Light Rain
5:00 AM 42.8 °F 35.4 °F 41.0 °F 93% 30.12 in 6.2 mi West 15.0 mph - N/A Rain Light Rain
5:30 AM 42.8 °F 37.0 °F 41.0 °F 93% 30.12 in 6.2 mi West 10.4 mph - N/A Rain Light Rain
6:00 AM 42 °F - 41 °F 94% 30.12 in 8 mi WSW 13.4 mph - - Rain Light Rain
6:00 AM 42.8 °F 35.8 °F 41.0 °F 93% 30.09 in 6.2 mi WSW 13.8 mph - N/A Rain Light Rain
6:30 AM 42.8 °F 36.2 °F 41.0 °F 93% 30.09 in 6.2 mi WSW 12.7 mph - N/A   Light Drizzle
7:00 AM 42.8 °F 35.4 °F 41.0 °F 93% 30.09 in 6.2 mi WSW 15.0 mph - N/A   Light Drizzle
7:30 AM 42.8 °F 36.2 °F 41.0 °F 93% 30.09 in 6.2 mi WSW 12.7 mph - N/A Rain Light Rain
8:00 AM 42.8 °F 36.2 °F 42.8 °F 100% 30.09 in 5.0 mi WSW 12.7 mph - N/A Rain Light Rain
8:30 AM 42.8 °F 35.8 °F 42.8 °F 100% 30.09 in 5.6 mi WSW 13.8 mph - N/A Rain Light Rain
9:00 AM 42.8 °F 35.8 °F 42.8 °F 100% 30.06 in 5.0 mi WSW 13.8 mph - N/A Rain Light Rain
9:30 AM 44.6 °F 37.8 °F 42.8 °F 93% 30.06 in 5.6 mi West 15.0 mph - N/A Rain Light Rain
10:00 AM 42.8 °F 35.8 °F 42.8 °F 100% 30.06 in 6.2 mi WSW 13.8 mph - N/A Rain Light Rain
10:30 AM 44.6 °F 37.8 °F 42.8 °F 93% 30.06 in 6.2 mi West 15.0 mph - N/A Rain Light Rain
11:00 AM 44.6 °F 38.8 °F 42.8 °F 93% 30.06 in 6.2 mi WSW 11.5 mph - N/A   Mostly Cloudy
11:30 AM 44.6 °F 38.1 °F 42.8 °F 93% 30.04 in 6.2 mi West 13.8 mph - N/A   Mostly Cloudy
12:00 PM 46 °F - 44 °F 88% 30.06 in 16 mi WSW 13.4 mph - -   Partly Cloudy
12:00 PM 46.4 °F 40.4 °F 42.8 °F 87% 30.04 in 6.2 mi WSW 13.8 mph - N/A   Mostly Cloudy
12:30 PM 46.4 °F 40.4 °F 42.8 °F 87% 30.04 in 6.2 mi West 13.8 mph - N/A   Mostly Cloudy
1:00 PM 46.4 °F 40.7 °F 44.6 °F 93% 30.01 in 6.2 mi WSW 12.7 mph - N/A   Mostly Cloudy
1:30 PM 48.2 °F - 44.6 °F 87% 30.01 in 6.2 mi West 12.7 mph - N/A   Mostly Cloudy
2:00 PM 48.2 °F - 42.8 °F 82% 30.01 in 6.2 mi West 11.5 mph - N/A   Mostly Cloudy
2:30 PM 48.2 °F - 42.8 °F 82% 29.98 in 6.2 mi WSW 12.7 mph - N/A   Mostly Cloudy
3:00 PM 48.2 °F - 44.6 °F 87% 29.98 in 6.2 mi WSW 9.2 mph - N/A   Mostly Cloudy
3:30 PM 48.2 °F - 42.8 °F 82% 29.95 in 6.2 mi WSW 10.4 mph - N/A   Mostly Cloudy
4:00 PM 46.4 °F 41.9 °F 42.8 °F 87% 29.95 in 6.2 mi WSW 9.2 mph - N/A   Mostly Cloudy
4:30 PM 46.4 °F 42.9 °F 42.8 °F 87% 29.95 in 6.2 mi WSW 6.9 mph - N/A   Mostly Cloudy
5:00 PM 46.4 °F 43.5 °F 42.8 °F 87% 29.92 in 6.2 mi SW 5.8 mph - N/A   Mostly Cloudy
5:30 PM 44.6 °F 41.4 °F 42.8 °F 93% 29.92 in 6.2 mi SW 5.8 mph - N/A   Mostly Cloudy
6:00 PM 44 °F - 42 °F 90% 29.93 in 19 mi SSW 4.5 mph - -   Mostly Cloudy
6:00 PM 44.6 °F 42.2 °F 42.8 °F 93% 29.92 in 6.2 mi SW 4.6 mph - N/A   Mostly Cloudy
6:30 PM 44.6 °F 42.2 °F 41.0 °F 87% 29.89 in 6.2 mi SSW 4.6 mph - N/A   Mostly Cloudy
7:00 PM 44.6 °F 42.2 °F 41.0 °F 87% 29.89 in 6.2 mi SSW 4.6 mph - N/A   Mostly Cloudy
7:30 PM 44.6 °F 43.1 °F 41.0 °F 87% 29.86 in 6.2 mi South 3.5 mph - N/A   Mostly Cloudy
8:00 PM 42.8 °F - 41.0 °F 93% 29.86 in 6.2 mi SSW 2.3 mph - N/A   Mostly Cloudy
8:30 PM 42.8 °F - 41.0 °F 93% 29.83 in 6.2 mi Variable 2.3 mph - N/A   Mostly Cloudy
9:00 PM 42.8 °F 39.3 °F 41.0 °F 93% 29.80 in 6.2 mi East 5.8 mph - N/A   Mostly Cloudy
9:30 PM 42.8 °F 40.1 °F 41.0 °F 93% 29.80 in 6.2 mi ESE 4.6 mph - N/A   Mostly Cloudy
10:00 PM 42.8 °F 39.3 °F 41.0 °F 93% 29.77 in 6.2 mi ESE 5.8 mph - N/A   Mostly Cloudy
11:00 PM 42.8 °F 38.0 °F 41.0 °F 93% 29.71 in 6.2 mi ESE 8.1 mph - N/A   Mostly Cloudy
11:30 PM 42.8 °F 38.0 °F 41.0 °F 93% 29.68 in 6.2 mi East 8.1 mph - N/A Rain Light Rain